North River — WYR2549 — position and weather

sailwx.info

Track history (hours):
 
Tides and Currents Weather Stations Pressure Air Temp Water Temp Dewpoint Dewpoint Depression Visibility Wind Speed Wind Dir Waves Ship Positions

North River

Owner: CITY OF NEW YORK, Brooklyn, NY. More information available from US FCC via Universal Licensing System and Coast Guard Vessel Documentation Center.

Last reported at 2014-Nov-21 21:33 UTC. Time now 2014-Nov-22 16:42 UTC.
Position N 40°48' W 073°54'.

Length 78 m.

Type: Tanker. MMSI: 367074110.

Date/timePositionNaut miles runAvg speedWind from/ knotsBaromVisibWave heightAir tempDewpointWater temp
2014-Nov-21 21:33N 40°48' W 073°54'1312.9
2014-Nov-21 20:33N 40°39' W 074°05'4 4.1
2014-Nov-21 19:33N 40°43' W 074°07'0 0.0
2014-Nov-21 18:32N 40°43' W 074°07'0 0.4
2014-Nov-21 17:33N 40°42' W 074°07'4 3.6
2014-Nov-21 16:33N 40°39' W 074°06'3 3.1
2014-Nov-21 15:33N 40°39' W 074°02'0 0.0
2014-Nov-21 14:33N 40°39' W 074°02'9 8.7
2014-Nov-21 13:29N 40°47' W 073°56'2 0.1
2014-Nov-20 22:24N 40°48' W 073°54'1113.0
2014-Nov-20 21:33N 40°39' W 074°02'0 0.3
2014-Nov-20 20:33N 40°39' W 074°02'0 0.0
2014-Nov-20 19:33N 40°39' W 074°02'5 5.2
2014-Nov-20 18:34N 40°43' W 073°58'1 0.1
2014-Nov-19 22:33N 40°42' W 073°60'9 8.9
2014-Nov-19 21:33N 40°34' W 073°56'4 1.2
2014-Nov-19 18:33N 40°37' W 073°53'3 3.3
2014-Nov-19 17:33N 40°35' W 073°50'0 0.0
2014-Nov-19 16:33N 40°35' W 073°50'10 5.1
2014-Nov-19 14:33N 40°38' W 074°03'12 0.8
2014-Nov-18 23:15N 40°48' W 073°54'6 8.6
2014-Nov-18 22:33N 40°43' W 073°58'5 5.5
2014-Nov-18 21:33N 40°39' W 074°02'0 0.1
2014-Nov-18 20:33N 40°39' W 074°02'4 4.2
2014-Nov-18 19:33N 40°38' W 074°08'0 0.0
2014-Nov-18 18:33N 40°38' W 074°08'2 1.6
2014-Nov-18 17:34N 40°39' W 074°06'7 2.3
2014-Nov-18 14:34N 40°45' W 074°01'  
2014-Nov-14 22:15N 40°47' W 073°54'1 1.1
2014-Nov-14 21:17N 40°47' W 073°55'0 0.4
2014-Nov-14 20:09N 40°47' W 073°55'711.3
2014-Nov-14 19:34N 40°42' W 074°01'6 2.7
2014-Nov-14 17:19N 40°48' W 073°59'5 6.0
2014-Nov-14 16:33N 40°43' W 073°58'5 2.3
2014-Nov-14 14:24N 40°47' W 073°54'1 0.1
2014-Nov-14 00:17N 40°48' W 073°54'7 9.0
2014-Nov-13 23:34N 40°43' W 073°58'10 9.8
2014-Nov-13 22:33N 40°33' W 074°01'7 6.7
2014-Nov-13 21:33N 40°34' W 073°53'2 2.4
2014-Nov-13 20:33N 40°35' W 073°50'3 2.6
2014-Nov-13 19:31N 40°34' W 073°53'8 8.4
2014-Nov-13 18:34N 40°38' W 074°03'1110.7
2014-Nov-13 17:32N 40°47' W 073°55'1 1.0
2014-Nov-13 16:28N 40°47' W 073°54'1 0.1
2014-Nov-12 18:32N 40°48' W 073°54'1110.9
2014-Nov-12 17:34N 40°39' W 074°02'0 0.2
2014-Nov-12 16:34N 40°39' W 074°02'0 0.3
2014-Nov-12 15:33N 40°39' W 074°02'8 8.0
2014-Nov-12 14:34N 40°46' W 073°57'3 2.7
2014-Nov-12 13:34N 40°47' W 073°54'  
Track history (hours):
 
Tides and Currents Weather Stations Pressure Air Temp Water Temp Dewpoint Dewpoint Depression Visibility Wind Speed Wind Dir Waves Ship Positions

North River

Owner: CITY OF NEW YORK, Brooklyn, NY. More information available from US FCC via Universal Licensing System and Coast Guard Vessel Documentation Center.

Last reported at 2014-Nov-21 21:33 UTC. Time now 2014-Nov-22 16:42 UTC.
Position N 40°48' W 073°54'.

Length 78 m.

Type: Tanker. MMSI: 367074110.

Date/timePositionNaut miles runAvg speedWind from/ knotsBaromVisibWave heightAir tempDewpointWater temp
2014-Nov-21 21:33N 40°48' W 073°54'1312.9
2014-Nov-21 20:33N 40°39' W 074°05'4 4.1
2014-Nov-21 19:33N 40°43' W 074°07'0 0.0
2014-Nov-21 18:32N 40°43' W 074°07'0 0.4
2014-Nov-21 17:33N 40°42' W 074°07'4 3.6
2014-Nov-21 16:33N 40°39' W 074°06'3 3.1
2014-Nov-21 15:33N 40°39' W 074°02'0 0.0
2014-Nov-21 14:33N 40°39' W 074°02'9 8.7
2014-Nov-21 13:29N 40°47' W 073°56'2 0.1
2014-Nov-20 22:24N 40°48' W 073°54'1113.0
2014-Nov-20 21:33N 40°39' W 074°02'0 0.3
2014-Nov-20 20:33N 40°39' W 074°02'0 0.0
2014-Nov-20 19:33N 40°39' W 074°02'5 5.2
2014-Nov-20 18:34N 40°43' W 073°58'1 0.1
2014-Nov-19 22:33N 40°42' W 073°60'9 8.9
2014-Nov-19 21:33N 40°34' W 073°56'4 1.2
2014-Nov-19 18:33N 40°37' W 073°53'3 3.3
2014-Nov-19 17:33N 40°35' W 073°50'0 0.0
2014-Nov-19 16:33N 40°35' W 073°50'10 5.1
2014-Nov-19 14:33N 40°38' W 074°03'12 0.8
2014-Nov-18 23:15N 40°48' W 073°54'6 8.6
2014-Nov-18 22:33N 40°43' W 073°58'5 5.5
2014-Nov-18 21:33N 40°39' W 074°02'0 0.1
2014-Nov-18 20:33N 40°39' W 074°02'4 4.2
2014-Nov-18 19:33N 40°38' W 074°08'0 0.0
2014-Nov-18 18:33N 40°38' W 074°08'2 1.6
2014-Nov-18 17:34N 40°39' W 074°06'7 2.3
2014-Nov-18 14:34N 40°45' W 074°01'  
2014-Nov-14 22:15N 40°47' W 073°54'1 1.1
2014-Nov-14 21:17N 40°47' W 073°55'0 0.4
2014-Nov-14 20:09N 40°47' W 073°55'711.3
2014-Nov-14 19:34N 40°42' W 074°01'6 2.7
2014-Nov-14 17:19N 40°48' W 073°59'5 6.0
2014-Nov-14 16:33N 40°43' W 073°58'5 2.3
2014-Nov-14 14:24N 40°47' W 073°54'1 0.1
2014-Nov-14 00:17N 40°48' W 073°54'7 9.0
2014-Nov-13 23:34N 40°43' W 073°58'10 9.8
2014-Nov-13 22:33N 40°33' W 074°01'7 6.7
2014-Nov-13 21:33N 40°34' W 073°53'2 2.4
2014-Nov-13 20:33N 40°35' W 073°50'3 2.6
2014-Nov-13 19:31N 40°34' W 073°53'8 8.4
2014-Nov-13 18:34N 40°38' W 074°03'1110.7
2014-Nov-13 17:32N 40°47' W 073°55'1 1.0
2014-Nov-13 16:28N 40°47' W 073°54'1 0.1
2014-Nov-12 18:32N 40°48' W 073°54'1110.9
2014-Nov-12 17:34N 40°39' W 074°02'0 0.2
2014-Nov-12 16:34N 40°39' W 074°02'0 0.3
2014-Nov-12 15:33N 40°39' W 074°02'8 8.0
2014-Nov-12 14:34N 40°46' W 073°57'3 2.7
2014-Nov-12 13:34N 40°47' W 073°54'  

Dump ship's entire track history